Voltar ao catálogo

KUIPER-00057

AtivoComunicaçõesLEO
NORAD 64517·PAYLOAD·🇺🇸 United States

Lançado Jun 23, 2025 de Cape Canaveral Space Force Station

Loading…

Próximas Passagens (próximas 24 horas)

TLE

AtualizadoSource: CelesTrak SupGP

Época: Sep 14, 2026, 22:38 UTC

1 64517C 25134T   26257.94369213  .00002351  00000+0  30776-3 0  2570
2 64517  51.8976 113.6891 0000824 104.0775 207.0555 14.79927054    11

Acompanhe KUIPER-00057 em tempo real com AllMySat

Download on the App Store